#timestamp,LO_Frequency,Hit,StdDev 
1682067615.6,286046998.5,N
1682067635.4,286046999.9,N
1682067655.2,286047000.4,N
1682067675.1,286047002.5,N
1682067676.0,286047002.5,N
1682067695.8,286047003.9,N
1682067715.7,286047003.1,N
1682067735.5,286047004.0,N
1682067755.3,286047001.5,N
1682067775.2,286047002.5,N
1682067795.0,286046999.8,N
1682067795.9,286046999.8,N
1682067815.8,286047000.0,N
1682067835.6,286047000.9,N
1682067855.4,286047001.2,N
1682067875.3,286047000.6,N
1682067895.1,286047000.4,N
1682067915.8,286046999.7,N
1682067935.7,286047001.8,N
1682067955.5,286047004.0,N
1682067975.3,286047004.3,N
1682067995.2,286047001.3,N
1682068015.0,286047004.0,N
1682068015.9,286047004.0,N
1682068035.8,286047002.1,N
1682068055.6,286047002.5,N
1682068075.4,286047001.7,N
1682068095.3,286047002.3,N
1682068115.1,286047002.7,N
1682068135.8,286047002.0,N
1682068155.7,286047002.3,N
1682068175.5,286047000.3,N
1682068195.4,286046999.8,N
1682068215.2,286047000.1,N
1682068235.0,286046999.8,N
1682068235.9,286046999.8,N
1682068255.8,286047002.2,N
1682068275.6,286046999.9,N
1682068295.4,286046998.8,N
1682068315.3,286046998.8,N
1682068335.1,286047001.1,N
1682068355.9,286046999.8,N
1682068375.7,286047002.5,N
1682068395.5,286047002.4,N
1682068415.4,286047002.7,N
1682068435.2,286047002.7,N
1682068455.1,286047003.9,N
1682068456.0,286047003.9,N
1682068475.8,286047005.1,Y
1682068495.6,286047004.0,P
1682068515.5,286047003.8,P
1682068535.3,286047005.1,P
1682068555.2,286047006.4,Y
1682068575.9,286047005.3,P
1682068595.7,286047005.0,P
1682068615.6,286047005.6,P
1682068635.4,286047005.2,Y
1682068655.3,286047000.7,P
1682068675.1,286047000.9,N
1682068676.0,286047000.9,N
1682068695.8,286047000.6,N
1682068745.7,286047001.0,E
1682068755.6,286046998.3,N
1682068775.5,286046998.9,P
1682068795.3,286046999.2,N
1682068815.1,286046998.9,Y
1682068835.9,286047002.8,P
1682068855.7,286047002.0,N
1682068875.6,286047002.5,N
1682068895.4,286047000.5,N
1682068915.2,286047000.5,N
1682068935.1,286047000.5,N
1682068936.0,286047000.5,N
1682068955.8,286047000.9,N
1682068975.6,286047002.5,N
1682068995.5,286047001.7,N
1682069015.3,286047004.0,Y
1682069035.2,286047002.2,P
1682069055.9,286047002.8,P
1682069075.7,286046999.8,N
1682069095.6,286047002.7,N
1682069115.4,286047001.9,N
1682069135.2,286047000.8,N
1682069155.1,286046999.7,N
1682069156.0,286046999.7,N
1682069175.8,286046999.8,N
1682069195.7,286046999.7,N
1682069215.5,286047001.7,N
1682069235.3,286047001.3,N
1682069255.2,286047001.7,N
1682069275.0,286047001.4,N
1682069275.9,286047001.4,N
1682069295.7,286047004.3,Y
1682069315.6,286046999.9,P
1682069335.4,286047002.8,P
1682069355.3,286047002.6,N
1682069375.1,286047002.8,N
1682069376.0,286047002.8,N
1682069395.8,286047002.1,N
1682069415.7,286047000.1,N
1682069435.5,286047002.4,N
1682069455.3,286047002.4,N
1682069475.2,286047002.8,N
1682069495.0,286047000.4,N
1682069495.9,286047000.4,N
1682069515.8,286047000.2,N
1682069535.6,286047001.6,N
1682069555.4,286047002.3,N
1682069575.3,286047001.5,N
1682069595.1,286047004.3,Y
1682069615.9,286046999.8,P
1682069635.7,286047000.5,N
1682069655.5,286047002.4,P
1682069675.4,286047002.1,N
1682069695.2,286047002.5,N
1682069715.0,286047002.6,N
1682069715.9,286047002.6,N
1682069735.8,286047000.1,N
1682069755.6,286047002.7,N
1682069775.5,286047000.2,N
1682069795.3,286047000.5,N
1682069815.1,286046998.1,N
1682069835.9,286047001.0,N
1682069855.7,286047002.4,N
1682069875.6,286047002.2,N
1682069895.4,286047002.2,N
1682069915.2,286046999.7,N
1682069935.1,286047002.4,N
1682069936.0,286047011.9,Y
1682069955.8,286046998.2,P
1682069975.6,286047001.0,N
1682069995.5,286047000.6,N
1682070015.3,286047000.3,N
1682070035.2,286046998.4,N
1682070055.9,286046998.5,N
1682070075.7,286047000.8,N
1682070095.6,286047000.4,N
1682070115.4,286047000.6,N
1682070135.2,286047001.1,N
1682070155.1,286046998.6,N
1682070156.0,286046998.6,N
1682070175.8,286046999.3,N
1682070195.7,286046999.4,N
1682070215.5,286046997.0,N
1682070235.3,286046996.8,N
1682070255.2,286046996.5,N
1682070275.0,286046999.1,N
1682070275.9,286046999.1,N
1682070295.7,286046999.6,N
1682070315.6,286046999.1,N
1682070335.4,286046997.8,N
1682070355.3,286046995.4,Y
1682070375.1,286046999.1,P
1682070376.0,286046999.1,P
1682070395.8,286046999.5,P
1682070415.7,286046998.3,Y
1682070435.5,286047001.0,P
1682070455.4,286046998.2,N
1682070475.2,286046998.1,N
1682070495.0,286046998.6,N
1682070495.9,286046998.6,N
1682070515.8,286047001.2,N
1682070535.6,286047001.0,N
1682070555.4,286047000.9,N
1682070575.3,286047000.4,N
1682070595.1,286046998.3,N
1682070615.9,286046999.0,N
1682070635.7,286046999.3,N
1682070655.5,286046996.5,Y
1682070675.4,286046998.3,P
1682070695.2,286047000.9,N
1682070715.0,286047000.9,N
1682070715.9,286047000.9,N
1682070735.8,286046998.1,N
1682070755.6,286046998.7,N
1682070775.5,286047001.2,N
1682070795.3,286046998.6,N
1682070815.1,286047000.6,N
1682070835.9,286047001.0,N
1682070855.7,286047000.0,N
1682070875.5,286047000.0,N
1682070895.4,286046998.1,N
1682070915.2,286046998.7,N
1682070935.1,286047000.7,N
1682070936.0,286047000.7,N
1682070955.8,286047000.0,N
1682070975.6,286047000.6,N
1682070995.5,286047001.2,N
1682071015.3,286046997.2,N
1682071035.1,286046997.4,N
1682071055.9,286046997.0,N
1682071075.7,286046997.1,N
1682071095.6,286046997.6,N
1682071115.4,286046995.7,N
1682071135.2,286046996.3,N
1682071155.1,286046996.4,N
1682071156.0,286046996.4,N
1682071175.8,286046995.9,N
1682071195.6,286046994.6,Y
